Location: Newark
(54.9353°N, 24.1167°E)
Time: 08:44:32
(UTC+00:00)

Envisat - Pass Details

Date: 28 September 2020
Orbit: 764 x 766 km, 98.1° (Epoch: 23 October)

Event Time Altitude Azimuth Distance (km) Brightness Sun altitude
Rises 03:14:16 0° 24° (NNE) 3,246 6.8 -10.3°
Reaches altitude 10° 03:17:17 10° 42° (NE) 2,314 6.4 -9.9°
Maximum altitude 03:20:50 19° 87° (E) 1,777 6.2 -9.4°
Drops below altitude 10° 03:24:23 10° 131° (SE) 2,302 6.1 -8.9°
Sets 03:27:21 0° 150° (SSE) 3,222 6.5 -8.5°
